This is the latest recevied weather packets stored in our database for station/object CX5ACA-13. If no packets are shown the sender has not sent any weather packets the latest 1 day(s).
| Time | Temp. | Humidity | Pressure | Rain* | Wind** | Luminosity | Snow |
|---|---|---|---|---|---|---|---|
| 1778056080 | 18.89° C | 98% | 1013.4 hPa | 0 mm | - | 0 W/m² | - |
| 1778055473 | 18.89° C | 98% | 1013.1 hPa | 0 mm | - | 0 W/m² | - |
| 1778053657 | 18.89° C | 97% | 1013.4 hPa | 0 mm | - | 0 W/m² | - |
| 1778052445 | 18.89° C | 97% | 1013.2 hPa | 0 mm | - | 0 W/m² | - |
| 1778052143 | 18.89° C | 97% | 1013.2 hPa | 0 mm | - | 0 W/m² | - |
| 1778051538 | 19.44° C | 97% | 1013.4 hPa | 0 mm | - | 0 W/m² | - |
| 1778051235 | 19.44° C | 96% | 1013.4 hPa | 0 mm | - | 0 W/m² | - |
| 1778050630 | 19.44° C | 96% | 1013.5 hPa | 0 mm | - | 0 W/m² | - |
| 1778050023 | 20° C | 96% | 1013.8 hPa | 0 mm | - | 0 W/m² | - |
| 1778049719 | 19.44° C | 96% | 1013.8 hPa | 0 mm | - | 0 W/m² | - |
| 1778049417 | 19.44° C | 96% | 1014 hPa | 0 mm | - | 0 W/m² | - |
| 1778049114 | 19.44° C | 96% | 1014 hPa | 0 mm | - | 0 W/m² | - |
| 1778048509 | 19.44° C | 96% | 1014.2 hPa | 0 mm | - | 0 W/m² | - |
| 1778048204 | 19.44° C | 96% | 1014.3 hPa | 0 mm | - | 0 W/m² | - |
| 1778047601 | 19.44° C | 96% | 1014.7 hPa | 0 mm | - | 0 W/m² | - |
| 1778046995 | 19.44° C | 96% | 1015 hPa | 0 mm | - | 0 W/m² | - |
| 1778045481 | 18.33° C | 96% | 1015.3 hPa | 0 mm | - | 0 W/m² | - |
| 1778045178 | 18.33° C | 96% | 1015.3 hPa | 0 mm | - | 0 W/m² | - |
| 1778044876 | 18.33° C | 96% | 1015.4 hPa | 0 mm | - | 0 W/m² | - |
| 1778044573 | 18.33° C | 95% | 1015.2 hPa | 0 mm | - | 0 W/m² | - |
| 1778043968 | 18.89° C | 95% | 1015.4 hPa | 0 mm | - | 0 W/m² | - |
| 1778043361 | 18.89° C | 95% | 1015.2 hPa | 0 mm | - | 0 W/m² | - |
| 1778043058 | 18.89° C | 95% | 1015.1 hPa | 0 mm | - | 0 W/m² | - |
| 1778042756 | 18.89° C | 95% | 1015.1 hPa | 0 mm | - | 0 W/m² | - |
| 1778042452 | 18.89° C | 95% | 1015 hPa | 0 mm | - | 0 W/m² | - |
* Rain latest hour (hover to see other rain measurements)
** Current wind speed in m/s (hover to see current wind gust speed)